Location: Acorn Hill
(36.4429°N, 76.5469°W)
Time: 23:58:39
(UTC+00:00)

Envisat - Visible Passes

Search period start: 24 July 2021 00:00
Search period end: 03 August 2021 00:00
Orbit: 764 x 766 km, 98.1° (Epoch: 24 July)

Date Brightness Start Highest point End Pass type
(mag) Time Alt. Az. Time Alt. Az. Time Alt. Az.
25 Jul 5.8 09:11:00 10° ENE 09:13:50 15° E 09:16:41 10° SE visible
27 Jul 5.2 09:35:06 10° NE 09:39:24 27° E 09:43:40 10° SSE visible
28 Jul 6.0 09:00:46 10° ENE 09:02:14 11° E 09:03:42 10° ESE visible
30 Jul 5.6 09:24:01 10° NE 09:27:50 21° E 09:31:38 10° SE visible
02 Aug 5.7 09:13:07 10° NE 09:16:15 16° E 09:19:22 10° SE visible
